Location: Maccacari
(45.1333°N, 11.1333°E)
Time: 01:40:53
(UTC+00:00)

A-11 Canister half - Pass Details

Date: 26 January 2021
Orbit: 1525 x 1684 km, 47.3° (Epoch: 05 March)

Event Time Altitude Azimuth Distance (km) Brightness Sun altitude
Rises 19:58:10 0° 293° (WNW) 4,765 12.5 -39.2°
Reaches altitude 10° 20:01:28 10° 287° (WNW) 3,800 11.7 -39.8°
Maximum altitude 20:10:09 39° 223° (SW) 2,265 9.9 -41.2°
Enters shadow 20:11:05 39° 211° (SSW) 2,293 9.8 -41.4°
